Location: Unspecified
(58.9933°N, 5.6375°E)
Time: 15:06:15
(UTC+02:00)

Cosmos 2058 - Pass Details

Date: 23 January 2018
Orbit: 564 x 584 km, 82.5° (Epoch: 21 May)

Event Time Altitude Azimuth Distance (km) Brightness Sun altitude
Rises 21:29:24 0° 250° (WSW) 2,805 7.0 -36.6°
Reaches altitude 10° 21:32:32 10° 276° (W) 1,912 6.2 -36.9°
Enters shadow 21:33:59 14° 295° (WNW) 1,691 6.0 -37.1°
